Wind_Speed
4 3 1 1 3 5 7 9 11 13 14 15 15 16 17 17 18 17 16 14 12 10 9 7 6 6 6 6 5 5 6 6 7 8 8 7 6 6 5 3 3 4 7 8 9 10 11 11 11 12 11 10 9 7 4 2 5 6 4 4 5 5 4 5 6 6 6 7 7 7 7 7 7 7 9 11 10 10 10 7 6 5 6 6 7 10 9 9
5 4 3 2 1 0 2 3 5 7 8 10 11 13 15 16 18 19 19 19 17 15 13 11 8 7 7 7 6 6 6 7 7 8 7 7 6 5 4 3 2 2 4 7 7 9 10 10 11 10 11 11 10 8 6 5 5 6 4 3 3 5 3 3 5 6 6 6 6 5 5 6 6 8 9 9 8 9 10 9 8 6 6 7 8 11 10 11
5 4 4 3 2 1 1 1 1 2 3 4 5 6 8 11 14 17 19 20 20 20 17 15 12 9 7 8 8 7 7 7 7 9 8 6 6 5 5 6 5 3 1 5 6 8 9 10 9 10 12 10 9 8 6 6 4 5 6 3 3 5 2 1 4 5 5 5 6 5 5 6 7 8 8 8 6 7 6 7 8 7 6 7 9 11 11 11
4 4 3 3 2 2 1 1 2 2 2 2 2 2 3 4 7 11 15 18 21 21 21 19 17 13 9 8 9 8 8 7 8 10 8 6 6 6 6 6 4 3 3 4 5 6 7 9 8 10 13 7 8 10 7 6 3 5 6 4 6 7 2 2 4 4 4 4 4 4 5 5 7 8 8 7 5 5 5 4 7 7 7 7 8 10 11 10
4 4 3 3 3 2 2 2 2 3 2 2 2 2 3 3 4 5 8 12 17 20 22 22 20 18 13 10 9 9 8 6 8 10 9 8 7 6 5 4 4 7 6 4 3 5 6 8 8 10 11 6 7 8 7 6 4 5 5 5 8 8 4 5 5 4 5 4 3 4 5 5 6 7 7 7 5 5 5 5 5 6 6 7 7 9 9 9
4 4 3 3 3 3 3 3 3 4 4 4 3 3 3 3 4 4 5 7 10 16 20 22 22 21 18 14 10 11 9 4 8 11 9 9 8 6 5 5 8 9 6 4 2 4 6 7 7 8 8 6 7 6 7 8 6 5 5 5 7 7 5 5 5 5 5 5 4 4 4 4 4 5 5 5 6 5 6 7 5 4 5 7 8 8 8 8
4 4 3 3 3 3 3 3 3 4 4 5 4 4 3 3 4 4 5 5 7 10 15 21 23 23 22 18 13 13 12 6 6 11 10 10 9 7 8 10 10 7 6 4 2 2 4 7 7 7 7 6 6 7 9 11 10 9 6 4 4 4 5 6 6 5 5 5 5 4 4 3 2 3 2 3 6 5 5 6 5 4 6 8 9 9 8 7
4 3 3 3 3 3 3 3 3 4 5 5 5 4 4 3 3 4 5 5 6 7 10 16 21 24 24 22 18 14 14 11 6 9 11 11 10 9 11 11 9 7 5 4 2 2 3 5 6 6 6 5 6 8 9 12 13 12 10 7 4 2 2 4 5 4 4 4 5 5 5 4 3 2 1 1 4 5 5 7 6 4 5 8 9 10 10 8
4 4 4 4 4 4 3 3 4 4 4 5 5 5 4 4 3 4 4 5 5 5 7 11 17 23 24 24 22 16 15 15 10 8 11 13 13 11 11 10 8 6 4 3 3 3 1 3 4 4 4 5 7 7 8 10 8 10 12 11 9 6 3 0 4 4 4 4 4 5 6 6 5 3 2 2 4 4 4 7 7 4 5 8 10 10 10 8
6 5 5 5 4 4 4 4 4 4 5 5 5 5 4 4 3 3 4 4 5 5 5 8 13 20 23 25 25 17 16 19 14 10 10 13 15 14 12 10 8 6 4 3 4 4 2 1 2 3 4 5 7 6 7 8 6 9 11 11 11 9 7 5 1 3 5 5 5 6 7 6 6 4 2 2 4 3 3 6 8 6 5 7 10 11 10 8
7 6 6 6 5 5 5 5 5 4 5 5 5 5 4 4 3 3 3 4 4 4 5 6 10 17 22 25 25 20 19 20 17 14 11 12 16 15 14 12 10 9 6 4 5 6 5 3 1 3 3 4 5 4 5 7 8 10 10 10 12 11 10 8 5 2 3 6 6 7 8 8 7 5 5 3 3 4 4 6 7 7 6 7 9 10 10 9
7 7 7 7 7 6 6 5 6 6 6 6 6 5 4 4 3 3 3 3 3 3 4 5 8 14 19 23 25 24 24 21 18 17 14 12 15 16 16 15 14 12 10 8 9 10 7 5 3 2 1 2 3 2 3 6 8 10 10 8 8 11 11 10 7 5 4 4 5 5 7 9 8 7 6 5 3 5 6 6 6 7 8 8 9 10 10 10
7 7 6 7 7 8 7 6 6 6 6 7 7 6 5 4 4 3 3 3 3 3 4 4 7 11 16 21 24 26 26 22 20 18 16 14 14 15 16 15 16 16 14 12 12 12 9 6 4 3 3 2 3 2 2 5 7 8 9 8 4 6 10 10 8 6 5 4 3 2 3 4 5 6 5 5 5 4 6 7 7 8 8 9 9 10 10 11
7 7 6 6 7 8 8 8 7 6 7 7 7 7 6 5 4 4 3 3 4 4 4 4 5 9 14 18 21 24 26 25 22 20 18 16 14 14 15 15 16 17 16 15 14 13 10 9 7 6 6 3 3 4 3 5 6 6 7 8 3 3 7 10 9 8 5 4 4 1 1 1 4 6 4 6 6 5 6 7 9 9 9 9 10 11 12 11
8 8 7 7 7 7 8 8 8 7 7 7 7 8 7 6 6 4 4 3 4 4 4 4 5 7 11 16 19 22 26 26 25 22 21 19 16 13 13 14 15 16 17 16 16 15 12 11 9 7 7 6 5 4 2 3 4 4 3 5 4 3 5 9 10 9 5 4 4 3 1 1 5 7 4 5 5 6 8 8 10 10 9 10 10 12 13 13
9 9 8 8 7 7 8 9 9 8 8 7 7 7 7 7 6 6 5 5 5 5 5 5 6 7 9 13 16 20 23 26 26 25 24 22 19 17 15 15 15 15 16 17 18 17 15 13 11 10 10 7 4 3 3 4 1 2 1 2 4 5 4 6 10 10 7 5 4 2 1 1 5 7 4 4 4 7 10 11 11 11 11 11 11 13 14 14
11 10 9 9 8 7 8 8 9 9 9 8 7 7 8 7 7 7 7 6 7 6 6 7 7 8 9 11 14 17 21 24 26 26 25 25 23 20 19 17 15 14 15 16 18 19 16 15 14 11 10 8 5 5 5 4 4 2 1 1 2 5 4 6 10 10 9 7 4 2 1 2 6 7 4 2 3 6 10 11 12 12 13 12 12 13 13 13
12 12 11 10 9 8 9 9 9 9 9 9 8 8 9 8 7 7 8 8 8 8 8 8 8 8 7 10 13 15 17 21 24 26 26 26 25 23 21 20 18 16 14 14 16 19 17 16 15 11 8 9 8 8 7 4 2 2 3 3 3 4 4 6 9 10 9 7 5 3 1 2 6 7 4 1 3 7 11 12 13 14 13 13 13 13 13 11
13 13 13 12 11 10 10 10 10 10 10 9 9 9 10 9 9 8 8 9 9 9 9 10 10 10 8 10 14 15 16 19 23 25 26 26 26 25 23 21 20 17 15 14 15 17 17 15 15 13 11 11 9 8 7 5 5 5 6 6 7 6 4 7 10 9 8 7 6 4 3 3 5 6 4 0 3 8 11 12 15 15 14 15 14 14 13 12
14 14 14 14 13 11 11 11 11 11 11 10 9 9 10 10 10 10 10 10 9 11 12 12 12 13 12 12 15 15 16 19 22 25 26 26 27 26 25 24 22 19 17 14 13 16 17 16 16 15 12 10 8 8 8 8 7 7 8 7 7 7 5 9 11 8 7 6 5 5 5 4 5 7 7 2 3 8 11 12 14 15 14 15 16 15 15 13
13 14 15 15 14 13 12 12 12 12 12 11 9 9 10 10 10 12 12 11 11 13 14 14 14 16 17 16 17 17 17 19 22 25 26 26 27 25 26 27 22 19 19 16 13 16 18 17 17 15 10 8 7 7 8 8 8 8 8 7 7 5 5 9 11 8 7 5 4 6 6 5 6 8 8 5 0 5 9 10 12 13 13 14 15 15 15 14
13 14 14 15 15 14 13 13 13 13 12 12 11 10 10 11 11 13 14 13 14 14 15 15 16 17 19 19 19 19 19 20 23 26 26 27 28 24 23 26 22 18 18 18 16 15 17 19 18 13 11 11 10 9 8 8 9 9 8 8 7 3 5 9 10 9 6 3 4 7 7 6 7 8 8 6 2 2 5 8 10 12 13 14 14 14 16 16
13 13 13 14 15 15 14 14 14 14 13 12 12 11 11 11 12 13 14 15 15 15 16 16 15 16 19 21 21 21 21 21 22 24 24 26 27 23 21 23 22 19 18 20 20 17 16 18 16 13 14 13 10 9 8 8 9 9 8 8 6 4 6 7 9 9 6 4 5 7 8 7 7 9 9 7 5 4 4 6 9 11 13 14 14 13 15 17
14 14 13 13 15 15 14 14 14 14 14 13 12 12 11 11 12 12 13 15 16 16 17 16 15 16 20 23 23 22 22 21 20 22 23 23 25 24 22 21 20 21 20 19 21 21 16 14 13 13 15 13 9 9 9 9 10 9 9 10 8 7 7 7 9 8 6 6 6 6 7 5 5 7 8 8 7 6 5 6 8 9 11 13 15 16 16 17
15 14 13 12 13 15 15 13 14 14 14 14 13 12 11 11 11 12 12 13 13 14 16 17 16 17 19 23 24 22 23 23 21 21 21 20 21 21 20 19 19 20 21 19 20 22 19 18 17 11 10 12 11 10 9 9 10 9 9 8 7 7 7 9 9 5 4 5 4 4 5 2 2 3 6 8 9 8 7 7 8 8 9 11 13 17 19 19
16 14 13 12 12 14 15 14 13 13 13 13 13 12 11 11 10 10 9 10 11 12 14 16 16 16 19 23 25 25 23 24 24 21 21 19 18 17 16 18 19 18 18 18 19 21 19 19 19 13 9 9 10 11 10 9 10 9 7 6 6 6 6 7 6 4 4 5 4 5 5 4 3 2 4 7 8 9 9 8 8 9 10 10 10 13 17 20
18 15 13 12 12 13 15 15 13 11 12 13 12 11 11 10 10 7 6 8 10 11 13 14 16 17 20 23 26 25 20 20 25 25 21 19 18 17 16 17 18 17 16 16 17 19 20 19 18 17 14 11 11 11 10 10 11 8 6 9 8 6 5 5 4 4 5 6 8 6 5 7 6 4 6 8 7 8 9 9 8 9 9 10 9 10 13 19
19 16 13 12 13 13 13 14 13 11 11 12 12 12 10 10 9 5 3 6 5 7 9 13 16 17 20 23 26 26 19 15 21 26 24 20 19 18 16 15 15 16 17 18 17 15 17 21 20 19 19 17 15 11 7 9 11 10 9 12 10 7 5 4 4 6 5 7 9 5 4 7 7 6 8 9 7 6 8 7 6 5 6 8 10 9 10 15
20 17 13 12 14 14 13 13 12 11 10 11 11 11 11 10 8 3 4 6 4 5 6 8 13 17 20 23 25 28 25 16 15 21 25 23 22 19 16 15 13 13 16 19 19 13 11 17 19 18 20 19 16 13 10 8 10 11 11 11 10 7 5 4 5 6 5 9 8 2 4 7 6 5 5 5 5 4 4 3 3 5 5 7 9 10 10 12
22 18 13 12 13 14 13 12 12 11 9 10 11 11 12 11 7 5 6 5 3 6 8 8 12 15 19 23 26 29 25 20 17 18 23 25 23 20 18 16 14 12 13 16 19 16 11 12 16 17 20 18 15 15 14 11 10 9 8 7 6 5 4 4 5 6 7 8 5 3 5 7 7 5 2 3 5 4 2 2 3 6 6 6 8 10 11 12
22 19 14 12 12 13 12 12 11 10 9 9 10 11 12 10 8 8 7 6 5 6 7 9 12 13 17 22 26 28 24 21 20 18 22 27 24 21 20 16 15 14 13 15 18 18 15 13 13 14 16 17 16 16 16 15 12 9 7 8 7 6 5 6 5 6 8 5 1 3 6 6 7 6 4 4 7 7 6 5 5 6 7 7 7 9 12 13
21 18 15 13 12 11 11 11 10 10 9 8 10 12 12 10 11 12 8 6 6 5 4 8 11 11 14 18 21 26 25 21 21 18 21 26 24 23 22 18 17 15 14 15 16 15 17 17 14 12 14 18 18 15 14 14 13 9 9 11 10 7 5 6 5 5 7 3 1 4 5 6 8 8 7 6 7 7 8 8 7 7 7 7 7 9 12 15
19 17 14 13 12 10 10 10 9 9 8 8 11 14 13 10 11 13 12 7 3 4 5 6 9 10 12 16 18 23 24 20 21 19 19 22 22 22 23 18 17 16 11 11 14 13 14 16 17 16 15 19 20 17 15 15 14 13 13 13 11 7 4 6 5 4 7 4 3 5 6 7 7 6 6 5 5 6 6 6 6 5 6 7 7 8 11 15
18 15 14 13 11 10 10 9 8 8 8 9 12 15 15 14 11 10 12 10 6 6 5 5 7 9 12 15 16 21 24 19 19 19 17 21 22 21 22 20 20 18 10 7 11 13 12 12 18 22 18 19 24 21 15 12 13 15 14 13 12 9 7 6 3 4 4 2 3 7 6 5 4 4 8 9 8 8 5 5 4 3 5 7 7 8 9 13
15 14 12 12 11 10 9 9 9 9 9 9 14 17 17 17 12 8 9 10 9 8 5 5 7 7 11 14 14 20 24 19 18 19 18 21 22 22 22 22 23 20 14 11 9 10 11 8 12 21 19 18 23 23 17 12 12 14 14 13 14 11 9 8 6 6 6 4 5 7 6 7 7 8 12 13 10 7 5 4 3 3 5 6 7 8 9 11
14 12 11 11 11 10 9 9 9 9 10 11 15 19 19 15 9 8 9 11 12 12 9 8 8 9 11 13 14 19 23 19 18 20 18 19 21 22 21 20 22 22 18 14 9 8 11 8 9 19 19 17 19 19 19 18 12 11 14 15 13 10 9 10 7 5 8 8 4 5 8 9 6 6 9 10 6 5 4 2 2 3 5 6 7 8 8 9
12 11 10 11 11 10 10 9 9 10 10 13 17 19 17 14 12 12 12 11 11 12 11 9 10 11 11 12 14 19 22 19 17 19 19 18 19 21 22 19 20 22 21 17 12 8 9 8 10 17 18 19 20 17 18 21 15 10 11 13 12 11 10 11 8 4 7 8 3 4 8 6 3 3 5 7 4 5 4 2 2 3 5 7 7 7 6 6
11 10 10 11 11 11 10 9 9 10 11 15 19 19 17 16 17 18 18 15 11 9 8 8 9 9 9 10 12 17 22 21 19 19 19 18 16 18 22 21 20 21 20 18 14 9 8 8 9 14 15 17 21 20 18 21 22 17 11 8 10 11 10 10 9 6 5 6 4 3 4 4 4 3 3 4 3 5 5 3 2 3 6 7 7 6 4 2
9 9 10 10 10 11 10 10 10 9 12 16 17 17 18 17 18 22 22 18 14 10 8 8 8 8 8 8 6 11 20 22 21 20 19 18 16 15 18 20 19 19 19 20 17 11 10 11 7 10 14 15 18 22 21 19 22 23 17 12 11 11 8 7 9 9 6 4 4 3 2 2 2 1 1 3 5 7 5 4 3 3 5 7 6 4 2 2
7 8 10 10 10 10 10 10 11 10 13 16 15 14 17 16 17 22 23 20 18 13 9 7 7 8 8 7 6 8 14 19 20 20 20 18 16 15 16 17 16 16 17 20 19 14 12 13 8 7 11 15 16 21 23 18 18 22 22 18 16 14 10 8 10 10 8 5 3 3 3 3 3 3 3 4 6 8 6 5 4 4 6 6 4 3 3 5
5 7 10 10 10 10 10 10 11 12 12 13 15 15 18 18 17 17 19 21 22 18 15 13 11 10 9 8 8 6 8 14 17 19 20 19 18 17 16 17 16 14 16 20 21 18 14 14 11 7 10 13 14 16 19 17 15 18 20 20 18 16 13 11 9 9 9 7 5 4 3 3 4 6 5 5 6 7 6 5 4 4 6 5 3 1 4 7
4 7 9 10 10 11 10 9 12 14 12 12 15 15 16 17 16 14 16 19 20 19 20 21 18 16 14 12 11 8 7 10 14 17 19 19 20 17 12 14 16 14 15 18 21 21 16 14 14 12 12 10 8 11 15 17 17 16 17 18 16 15 16 13 9 7 8 8 6 6 3 2 3 8 6 6 6 5 5 4 4 4 4 4 2 1 3 7
5 7 9 9 10 10 9 8 12 14 12 14 17 15 14 14 13 12 13 14 16 15 18 20 19 19 18 15 14 12 10 10 12 15 16 16 19 18 13 13 15 15 14 14 16 20 19 15 15 15 13 10 8 9 11 12 15 18 19 18 15 14 15 12 8 5 7 7 6 5 3 2 5 8 5 5 5 4 5 4 3 4 3 3 1 2 3 6
7 7 8 9 10 10 9 9 10 10 10 15 16 12 12 12 12 11 9 10 12 12 13 15 17 19 17 16 16 14 11 11 11 11 14 14 14 18 19 18 17 16 16 14 13 17 18 16 15 14 11 10 11 11 12 11 13 17 19 19 17 14 12 10 7 5 7 8 6 5 3 3 4 6 4 5 5 5 5 4 4 4 2 2 1 2 4 5
8 7 8 9 10 11 11 12 12 10 10 16 15 11 10 11 11 12 11 10 11 12 13 12 13 16 16 17 20 18 15 15 11 9 12 12 12 16 19 22 22 18 16 16 15 15 15 15 18 16 11 10 11 11 13 15 14 15 16 18 18 16 14 12 10 9 9 8 7 6 4 3 4 5 5 7 6 6 5 5 5 4 2 1 1 2 3 5
8 6 7 8 9 11 13 15 15 12 12 15 13 11 11 9 9 12 13 11 11 12 12 11 12 15 16 17 19 19 18 19 16 12 12 11 11 13 17 22 24 21 19 20 17 13 13 14 18 20 16 13 11 8 9 13 16 17 16 16 17 17 16 14 11 10 10 8 8 9 6 4 4 4 6 8 8 8 7 6 5 4 2 1 1 2 4 5
8 7 8 8 7 8 10 13 15 14 14 14 11 11 11 9 9 11 10 10 12 11 10 10 11 12 14 15 16 17 17 18 18 17 15 12 11 13 15 20 26 26 25 24 19 14 13 14 18 22 21 18 13 6 6 12 15 16 16 16 18 17 17 16 13 12 11 9 8 8 8 8 5 5 6 8 9 9 9 8 6 4 3 2 2 3 4 5
10 8 8 8 7 7 8 10 13 13 14 13 12 12 11 8 8 10 9 10 11 11 8 6 8 12 15 17 17 16 15 15 19 20 17 13 12 13 13 15 23 28 27 23 21 18 15 15 17 19 21 22 17 10 9 11 13 13 14 15 17 18 18 18 17 14 12 12 8 5 8 10 6 5 5 8 10 10 10 9 8 5 4 3 3 4 4 4
10 9 8 8 10 11 12 12 12 11 12 12 11 11 11 8 10 13 14 11 8 10 10 6 7 13 16 18 18 16 15 15 16 18 19 16 13 13 13 12 16 22 23 20 20 20 17 15 15 16 18 20 18 15 14 13 12 13 13 14 15 17 18 18 17 15 14 13 10 8 9 9 8 7 8 9 12 12 11 10 8 7 5 4 3 4 4 4
11 9 8 8 10 12 12 13 13 10 11 11 10 10 11 10 12 16 17 14 9 9 13 11 10 13 15 16 16 15 19 21 17 16 21 21 16 14 14 12 11 16 20 18 18 19 17 15 15 14 15 17 16 17 17 16 14 14 15 14 15 16 18 18 16 15 15 15 14 14 12 9 8 11 12 14 15 13 12 10 9 8 6 4 3 2 1 2
11 9 8 7 8 10 10 12 13 10 9 10 10 12 13 12 14 16 15 15 13 12 14 12 10 11 12 12 13 16 23 26 21 19 22 23 20 19 18 15 13 14 16 16 18 19 17 15 16 14 14 15 16 16 17 16 15 17 18 17 16 16 17 17 16 16 16 16 15 16 12 8 9 12 13 15 15 13 12 10 10 9 7 5 4 2 2 1
12 10 9 7 6 7 8 9 10 8 10 13 13 14 14 13 15 16 12 12 14 15 16 13 10 10 7 7 12 19 24 26 24 22 22 22 22 21 20 19 18 17 16 15 17 19 17 16 15 14 14 14 14 14 15 15 14 17 20 20 18 17 16 16 16 17 18 17 14 12 11 10 11 13 14 15 14 13 13 12 11 10 8 6 4 3 2 1
Wind_Direction
68 75 91 204 238 243 245 246 247 246 246 245 244 241 238 235 231 228 227 227 225 221 216 212 207 198 192 186 190 181 164 161 165 171 172 164 159 156 148 124 63 41 40 41 48 49 47 44 42 40 40 41 38 39 43 101 170 169 158 183 165 132 136 133 129 137 130 131 132 132 129 120 108 94 94 92 88 85 76 71 75 86 103 110 120 117 120 132
57 59 60 60 59 300 253 249 248 247 247 246 248 247 245 243 239 234 230 227 225 224 222 218 214 206 199 193 192 190 176 168 171 175 169 158 163 170 183 216 271 325 30 40 39 43 42 41 40 39 41 38 31 36 43 69 133 155 168 202 146 130 151 146 143 143 134 132 128 127 133 128 116 104 97 101 103 92 82 80 77 77 102 114 117 118 124 133
51 50 47 45 42 27 356 316 274 256 245 241 242 247 249 248 245 241 236 231 227 224 223 220 216 211 204 197 194 192 185 177 175 177 172 165 174 191 219 239 257 262 44 52 37 37 39 39 38 37 47 39 23 34 48 64 89 133 136 147 175 162 150 181 170 160 151 139 134 134 130 124 121 112 101 109 119 110 98 89 90 86 96 116 121 121 127 136
42 39 34 31 22 17 354 322 304 289 273 258 247 246 254 255 252 248 241 236 231 226 223 220 217 214 208 199 195 194 188 187 193 186 181 187 193 203 226 252 251 201 135 80 42 40 41 43 41 42 54 41 17 35 42 55 85 120 121 155 182 163 141 208 195 188 189 166 155 145 127 123 124 120 112 115 110 110 126 107 104 104 100 113 126 127 130 138
33 27 21 14 3 360 343 323 308 296 288 279 271 267 268 267 266 261 252 242 235 230 225 221 216 214 212 203 195 194 183 191 214 200 191 200 205 209 227 241 174 148 132 99 59 52 50 50 50 48 56 45 28 34 24 43 88 108 118 157 164 160 170 205 205 210 212 205 191 159 149 150 132 125 123 129 110 94 126 137 133 131 118 117 130 135 134 140
24 21 12 2 352 347 338 326 314 305 300 292 286 281 276 273 271 267 264 253 241 233 227 222 217 213 212 208 199 191 184 207 227 204 195 198 204 210 204 175 149 141 130 114 91 68 54 50 53 52 54 45 45 44 29 42 64 78 98 133 151 171 191 209 215 220 225 223 212 191 178 169 146 131 123 152 157 124 125 138 138 141 143 134 136 143 140 145
11 10 4 356 344 336 330 324 317 311 307 301 298 289 283 277 273 270 265 261 252 240 230 224 218 212 210 210 207 195 194 219 223 202 198 192 198 197 172 160 150 146 140 128 125 97 59 46 52 59 55 40 50 55 50 54 56 63 72 95 144 184 202 215 222 233 235 225 219 221 220 206 180 145 114 169 167 150 136 136 131 134 158 152 143 149 153 157
347 345 345 342 335 332 323 319 314 309 305 302 301 294 289 282 277 275 269 265 260 251 238 227 218 213 208 208 212 204 204 213 201 199 200 189 191 182 167 165 157 157 151 137 159 136 66 44 50 60 55 39 54 56 56 58 51 53 57 59 77 128 204 218 226 242 243 222 224 239 243 236 228 185 161 177 147 152 156 145 141 145 166 162 154 156 162 169
326 323 323 319 317 319 315 316 310 307 304 301 300 297 296 290 284 282 275 274 268 262 251 231 219 213 208 207 210 210 214 215 203 198 199 191 189 181 174 174 169 175 156 142 201 200 92 38 40 65 73 51 55 52 57 63 49 47 51 51 57 62 61 205 230 242 252 239 233 249 258 249 242 226 213 204 162 168 170 152 149 157 178 170 162 162 163 172
316 314 311 306 302 301 300 302 301 301 301 297 300 300 302 298 292 289 280 280 278 274 264 237 219 212 208 208 206 210 223 219 211 207 199 193 194 193 192 191 193 199 184 171 223 228 224 335 15 61 72 51 50 47 59 68 53 45 47 48 52 52 48 43 359 251 251 256 254 256 264 261 250 233 224 219 182 180 165 155 154 159 182 177 166 162 162 171
312 310 307 305 298 293 289 288 288 289 291 293 297 300 304 303 294 292 283 282 281 280 273 245 223 211 208 209 203 210 225 218 213 213 203 194 195 201 206 207 208 211 206 205 232 239 239 257 318 40 48 42 36 28 48 55 46 42 43 45 46 47 46 42 35 360 277 267 263 261 270 272 266 238 223 237 193 174 156 154 161 165 174 171 166 163 161 166
310 308 305 304 301 297 290 283 281 279 279 282 289 296 301 301 296 290 282 278 278 280 277 251 227 213 209 209 203 208 217 211 210 212 206 202 196 200 209 211 211 213 210 210 228 239 239 250 275 355 7 41 21 358 13 29 39 41 48 53 43 49 45 34 36 26 357 309 277 268 275 274 269 254 240 249 224 174 162 158 164 171 170 162 163 161 156 160
312 307 303 300 298 298 295 289 281 275 275 276 280 287 293 296 296 288 278 273 270 270 269 251 231 217 209 211 208 209 213 210 207 208 206 207 202 202 209 211 215 216 213 214 229 239 241 251 262 295 304 9 18 308 310 12 36 41 56 68 50 54 41 25 30 23 18 14 347 271 270 262 243 251 249 244 240 197 175 167 169 178 172 159 158 157 153 160
315 311 306 299 293 292 293 291 287 279 274 274 276 279 282 285 287 286 278 269 262 253 260 256 240 224 212 212 211 209 212 211 208 205 204 207 206 205 208 212 219 222 223 224 233 241 244 252 260 287 299 306 331 320 320 358 28 35 57 70 64 73 41 24 25 18 20 28 29 77 227 252 243 261 257 236 233 204 189 177 176 184 177 164 157 154 156 164
313 311 308 303 296 289 288 288 288 285 279 276 275 276 276 275 275 275 271 262 251 246 248 249 243 232 219 217 214 209 211 211 209 206 203 206 208 208 209 211 217 222 227 229 234 241 244 251 259 271 283 293 311 323 313 314 10 39 72 84 61 51 37 18 14 15 18 14 35 79 134 290 278 286 270 236 225 194 190 185 182 183 180 172 161 158 162 168
309 307 305 302 298 291 287 285 285 284 281 279 276 276 274 271 267 262 260 251 244 243 240 243 241 230 222 220 216 211 211 210 209 208 205 207 211 213 214 215 218 221 226 229 233 241 247 252 257 262 273 287 298 279 252 258 271 62 65 87 47 27 19 2 359 7 11 4 27 70 106 259 286 296 289 247 220 190 186 188 189 184 182 179 168 168 172 174
305 303 300 298 295 292 287 282 281 280 278 277 274 273 271 268 264 255 250 246 241 239 236 238 235 228 227 222 214 213 213 211 209 208 207 209 213 218 221 222 225 225 225 228 232 238 246 251 254 264 273 264 248 253 248 226 199 178 338 4 27 8 7 5 355 354 360 2 1 3 14 246 276 293 296 266 218 188 184 188 192 190 187 184 176 177 183 184
301 299 298 296 293 290 285 281 279 277 275 273 268 266 266 266 262 253 246 243 238 238 241 240 229 226 240 230 214 213 214 211 209 209 209 210 214 219 224 226 228 229 230 231 234 238 242 248 250 255 262 249 240 243 232 216 226 269 309 320 338 342 356 6 350 341 348 357 352 339 331 243 274 294 303 255 205 187 182 184 193 197 194 188 182 182 188 188
299 297 295 294 292 290 286 282 279 276 274 271 266 262 262 261 261 256 245 240 239 239 240 239 222 210 227 228 216 215 211 208 207 207 209 211 214 219 223 227 228 228 229 229 235 238 237 241 246 245 244 240 235 233 234 262 284 297 312 314 322 324 331 348 348 348 349 353 349 318 278 247 263 282 303 283 183 189 187 187 194 198 193 190 188 187 190 187
298 296 294 292 290 288 286 283 280 278 276 273 269 262 260 258 256 254 247 241 238 235 232 235 221 208 215 220 216 216 209 204 204 206 208 210 214 219 222 226 229 228 226 224 231 236 233 236 239 238 241 238 234 240 251 272 279 291 305 304 309 311 317 338 348 358 356 352 342 304 274 254 244 254 277 293 172 189 198 201 201 198 196 194 190 191 193 187
296 295 294 292 289 286 283 281 279 277 277 276 272 264 261 256 250 251 253 246 237 235 234 234 226 215 214 215 214 213 207 204 205 206 207 209 213 217 222 225 224 225 223 216 221 230 232 235 236 236 241 238 242 255 257 266 280 288 293 295 297 296 315 337 346 350 348 350 316 294 284 271 251 246 267 293 243 186 200 205 207 204 203 203 195 192 194 190
292 293 294 293 291 287 282 277 275 274 272 273 271 264 260 257 254 255 258 253 243 240 240 236 233 226 219 216 215 211 208 206 208 209 207 209 212 212 221 224 218 219 221 215 218 227 231 236 237 238 240 242 253 263 260 264 276 279 277 280 278 288 330 332 337 334 330 333 295 290 291 281 265 258 275 299 305 228 205 201 207 208 206 205 198 191 192 195
289 289 291 293 292 290 284 278 274 272 270 268 265 260 257 256 258 259 259 257 250 244 242 239 236 231 221 219 219 214 209 206 210 214 211 212 214 210 218 224 216 216 220 218 220 223 229 236 234 233 240 247 257 262 260 264 265 264 265 267 266 298 327 316 316 318 306 297 290 292 298 287 270 270 284 300 293 266 240 215 213 214 210 206 201 198 197 200
287 286 287 291 292 291 287 281 276 273 270 266 262 257 254 252 254 259 261 263 259 250 247 242 234 226 217 218 221 216 211 208 207 216 217 214 215 213 217 222 216 218 222 219 222 225 230 240 230 227 243 246 243 250 255 258 255 253 255 261 274 296 310 308 307 306 298 304 305 300 301 284 261 266 272 284 284 271 258 244 234 227 219 211 208 208 205 204
283 284 286 287 290 291 289 286 281 276 271 268 263 257 251 249 251 256 264 274 273 259 248 240 230 224 217 216 218 213 214 213 205 214 220 213 216 219 218 220 216 218 225 221 223 227 231 243 238 227 243 239 230 242 245 245 252 250 241 247 279 296 297 306 319 326 302 308 324 304 291 266 263 264 248 263 279 277 269 259 251 245 235 223 216 213 208 205
278 280 284 284 286 289 290 292 287 280 275 269 263 256 248 245 247 253 270 282 275 259 247 235 225 222 215 214 214 209 213 218 211 214 220 213 216 219 213 218 220 220 224 219 222 228 226 237 240 225 227 231 228 239 238 240 250 245 229 240 279 302 294 296 319 331 290 282 290 290 280 277 297 289 252 265 280 283 280 275 265 256 248 238 228 219 210 208
274 275 278 281 281 283 289 293 293 288 278 270 263 255 246 241 240 250 276 275 256 244 240 224 214 214 209 210 212 204 205 219 216 214 216 214 215 214 207 216 223 219 213 208 219 228 221 225 232 225 227 232 229 233 232 233 240 239 240 256 279 300 286 275 278 279 286 282 277 274 272 277 278 276 286 286 281 285 293 295 283 269 260 250 240 228 216 211
269 270 273 277 277 278 283 289 296 295 279 268 261 250 241 236 233 234 266 266 233 214 227 215 210 212 205 206 207 200 200 212 215 215 213 210 214 214 209 214 222 219 211 208 216 225 222 224 230 229 228 229 228 230 229 227 239 254 258 261 276 290 272 264 267 271 287 277 263 237 239 270 267 255 283 298 290 285 297 300 292 277 258 248 242 234 224 214
264 265 267 270 274 277 280 286 294 294 280 265 255 241 231 227 218 203 243 261 235 205 223 209 208 212 205 204 202 198 202 200 203 214 211 207 211 209 206 211 217 216 215 217 219 225 229 225 226 225 224 227 227 229 232 228 239 257 262 263 272 278 266 258 262 264 269 266 262 221 234 272 287 258 260 302 303 285 285 280 284 290 268 247 239 231 226 218
262 262 262 262 268 274 279 285 288 290 281 262 247 230 221 214 203 214 230 229 208 221 230 207 201 209 205 203 200 198 202 201 199 210 208 208 212 209 207 210 209 210 216 221 224 229 237 231 225 223 221 223 224 226 230 231 233 246 250 244 246 256 262 263 260 257 252 254 257 246 248 269 294 293 271 299 296 282 247 213 276 299 287 260 245 233 228 222
262 261 258 256 262 267 273 280 283 286 281 257 239 222 211 200 203 229 234 218 218 229 229 212 205 208 205 202 199 197 199 204 208 209 204 205 208 208 209 209 206 210 217 223 228 229 233 235 228 223 219 213 215 224 229 231 232 233 229 219 221 228 242 254 249 248 255 254 200 235 247 255 273 295 316 298 290 284 268 259 279 294 283 260 245 236 232 227
261 260 257 253 257 262 267 273 277 281 276 252 228 209 198 198 214 227 236 239 237 223 210 214 210 210 207 200 199 199 197 201 208 209 205 203 202 203 206 203 199 201 211 219 223 223 225 228 222 216 212 203 204 215 219 224 226 221 214 217 227 221 216 245 236 234 261 264 173 235 244 259 272 285 295 285 283 287 284 277 271 268 266 260 248 238 233 228
261 258 256 253 253 260 265 268 272 272 267 241 216 196 190 210 226 226 228 234 241 216 205 210 209 206 202 198 200 201 196 200 206 204 202 201 200 205 207 206 202 205 220 216 207 210 213 215 214 212 210 201 199 202 204 208 211 212 209 212 227 233 232 248 234 232 256 240 221 253 257 267 275 279 279 269 271 296 298 273 255 248 257 267 261 247 236 226
263 257 253 251 250 256 259 263 264 257 249 228 204 188 194 218 229 224 225 229 239 232 212 202 202 202 202 200 201 197 191 197 204 199 197 199 202 207 206 208 208 209 225 217 205 211 206 204 207 207 209 204 201 203 203 203 205 209 214 220 235 253 265 269 270 261 258 187 217 247 252 264 276 278 280 281 286 299 293 256 256 276 280 283 273 259 248 229
266 256 249 246 245 248 249 254 253 240 235 217 194 191 205 221 229 231 227 225 229 229 223 220 209 208 211 204 203 200 194 196 200 197 199 202 206 209 206 209 210 207 215 221 216 212 217 233 210 198 200 200 202 207 210 214 215 208 212 227 240 249 258 269 290 300 303 293 235 226 239 263 280 288 290 293 290 280 261 246 275 307 303 301 283 264 259 240
269 256 245 239 238 239 238 243 240 228 222 202 193 205 217 223 226 225 222 225 229 226 228 236 219 214 216 205 205 206 197 196 200 200 205 207 211 214 210 212 213 209 211 215 210 204 218 233 193 188 196 196 202 210 209 216 220 196 203 223 233 241 254 262 264 263 274 276 240 223 250 260 269 280 288 297 282 218 216 235 260 301 316 315 293 271 265 247
270 257 243 237 234 233 233 232 226 220 210 196 202 216 223 225 225 222 220 228 235 229 227 235 222 214 218 210 207 204 196 196 200 202 206 209 215 219 214 213 215 214 213 215 219 224 230 222 183 191 204 202 207 212 209 217 219 201 212 222 216 224 243 255 259 236 245 259 245 248 266 271 275 257 274 296 273 193 205 224 229 295 327 328 304 278 274 253
272 261 244 236 232 231 231 226 220 214 201 201 214 225 227 229 235 235 231 230 233 229 226 236 229 221 224 219 208 199 198 200 200 202 207 208 214 221 215 213 219 219 215 216 224 227 231 228 191 191 209 212 214 218 216 219 220 219 230 220 207 224 226 221 242 257 248 256 254 244 268 278 266 244 255 285 254 205 217 234 246 308 333 338 320 281 281 259
272 262 249 241 234 231 228 224 219 209 203 210 221 232 234 234 239 240 235 231 234 233 230 238 236 225 222 225 212 193 198 204 203 205 210 209 213 223 218 212 220 224 214 211 219 218 219 230 203 179 205 215 210 213 215 215 215 220 229 228 225 244 246 213 232 254 260 269 266 237 237 247 239 231 231 233 212 203 216 244 269 322 338 340 332 280 254 128
272 254 249 245 236 231 225 222 219 209 209 217 221 230 237 236 240 242 237 233 234 233 232 237 232 226 227 230 224 200 202 211 210 210 213 212 214 223 220 211 213 222 216 209 215 217 214 226 220 159 190 209 204 206 211 209 205 210 219 225 223 229 240 237 235 245 258 273 268 248 253 231 229 263 248 196 192 203 219 249 275 328 338 336 340 277 209 134
283 251 250 246 233 229 226 220 221 216 216 227 228 232 239 237 237 244 242 238 237 235 237 238 233 235 240 232 220 208 210 217 215 215 216 214 216 224 229 223 216 215 210 204 209 213 206 215 224 188 178 197 197 200 210 215 213 209 212 218 220 218 222 229 227 225 241 258 263 266 254 187 223 271 260 222 223 228 234 255 289 329 333 326 345 280 201 163
286 247 253 249 233 230 225 218 226 223 219 232 235 234 239 239 238 243 244 242 242 241 244 245 243 241 239 237 235 236 235 226 220 220 220 221 222 226 233 227 218 209 202 201 207 211 208 212 223 216 200 193 179 185 203 212 214 217 219 221 223 219 216 225 233 215 221 242 259 273 267 165 254 280 274 248 248 251 249 262 300 325 328 314 317 119 187 186
292 254 254 248 234 230 219 216 236 235 227 234 236 236 242 241 238 242 244 245 244 244 247 248 248 244 239 241 245 245 244 241 230 224 225 227 225 224 221 215 209 204 202 200 200 205 208 211 217 220 219 217 210 210 217 216 213 219 225 226 224 218 216 228 244 225 217 227 229 242 236 178 260 268 258 241 239 242 253 264 295 309 312 304 286 136 151 183
308 280 262 248 236 229 218 216 231 230 230 240 240 242 248 245 241 239 240 242 238 237 242 244 246 245 241 241 244 241 238 238 235 230 229 229 227 223 219 214 210 205 202 199 197 202 205 206 211 214 215 213 214 219 222 219 215 215 215 215 217 218 218 223 225 215 223 223 215 229 222 187 254 260 222 208 221 225 239 253 271 284 292 296 274 154 151 161
317 300 276 258 241 230 224 222 221 216 231 244 243 245 248 249 251 239 227 230 232 232 238 241 242 242 239 241 243 241 236 232 233 233 226 223 225 221 213 209 208 206 205 201 198 205 207 204 208 210 208 204 202 207 208 201 199 204 204 206 211 214 215 214 212 213 222 218 213 233 236 192 239 252 209 194 203 211 223 237 244 251 265 295 264 190 171 164
322 300 281 270 254 242 238 236 229 225 237 244 243 246 243 243 255 244 229 228 233 234 238 240 240 240 240 240 242 243 240 235 237 235 220 216 225 222 211 205 202 201 204 203 198 203 210 209 212 218 223 221 207 198 197 190 190 196 198 199 204 208 211 213 215 218 223 224 217 226 236 209 203 230 226 213 203 202 214 222 224 233 241 251 242 215 196 189
324 296 276 270 260 247 244 243 236 230 237 241 239 245 241 235 250 249 235 227 229 233 242 246 242 238 238 237 236 240 239 234 235 232 215 205 219 228 220 210 203 200 202 204 202 204 212 218 221 224 231 233 228 216 199 197 199 202 201 202 204 207 209 212 216 215 215 225 222 217 237 238 210 200 225 229 214 204 209 211 210 224 234 230 241 234 217 212
322 301 282 265 251 238 234 241 240 237 239 239 238 245 243 238 247 244 232 229 231 233 238 248 247 237 234 235 233 233 235 231 231 230 218 207 211 220 222 214 208 206 205 205 206 205 213 226 225 224 230 234 235 235 219 210 212 211 210 210 207 208 210 213 218 215 211 226 232 225 240 243 228 213 226 227 215 206 208 208 205 216 225 227 248 255 250 243
322 305 286 266 255 249 244 248 252 251 250 245 245 249 243 237 244 238 229 225 231 236 231 227 247 243 237 237 233 229 231 227 222 222 220 217 211 206 208 209 209 209 206 204 206 208 216 228 225 222 231 233 230 230 227 221 218 216 216 216 212 213 215 219 225 223 220 229 233 231 240 238 229 233 228 212 203 201 204 206 203 211 218 223 248 264 270 270
327 309 288 271 263 257 253 256 254 252 257 256 253 252 247 242 243 239 232 223 218 235 236 234 247 248 241 238 232 227 229 225 213 210 214 216 213 203 199 199 198 203 205 206 211 214 216 227 228 224 232 235 228 228 231 227 224 224 221 218 218 219 220 225 230 228 226 231 230 229 240 244 238 237 224 209 206 204 205 204 202 208 214 218 239 251 251 262
332 323 301 282 272 265 261 260 254 248 254 254 244 243 247 248 245 243 240 231 223 229 235 238 246 244 240 238 227 222 228 226 218 215 215 215 213 206 199 196 192 196 202 209 220 221 216 224 229 225 231 233 223 223 226 222 224 229 226 220 216 218 221 225 228 228 226 228 229 232 240 249 251 246 229 215 212 211 209 205 203 208 209 210 215 182 130 128
337 336 322 313 299 276 270 270 264 254 247 244 242 243 247 251 249 249 249 240 232 230 232 236 238 227 224 234 228 224 226 225 221 220 218 215 213 208 203 204 206 207 207 209 220 224 219 220 223 222 228 227 216 215 215 209 216 226 225 221 217 216 221 224 225 229 227 222 224 231 235 242 251 248 234 221 216 212 210 209 206 205 206 212 209 172 126 99
Height
3172 3172 3172 3172 3171 3171 3171 3171 3171 3171 3172 3172 3172 3173 3173 3173 3174 3174 3174 3175 3176 3176 3177 3177 3178 3178 3178 3179 3179 3179 3180 3180 3180 3180 3180 3180 3180 3180 3180 3180 3179 3179 3179 3179 3179 3178 3178 3177 3177 3177 3176 3176 3176 3175 3175 3175 3175 3176 3176 3176 3177 3178 3180 3181 3182 3182 3183 3184 3184 3185 3185 3186 3187 3187 3187 3187 3188 3188 3188 3188 3188 3188 3188 3189 3189 3189 3189 3190
3172 3172 3172 3171 3171 3171 3171 3171 3170 3171 3171 3171 3171 3171 3171 3172 3172 3172 3173 3174 3174 3175 3176 3177 3177 3178 3178 3179 3179 3179 3180 3180 3180 3180 3180 3180 3180 3181 3180 3180 3180 3180 3180 3180 3180 3179 3179 3178 3178 3178 3177 3177 3177 3176 3176 3175 3175 3176 3177 3177 3177 3178 3180 3180 3181 3182 3183 3184 3185 3185 3186 3187 3187 3187 3187 3188 3189 3189 3189 3189 3189 3189 3189 3189 3190 3190 3190 3191
3172 3172 3171 3171 3171 3171 3171 3170 3170 3170 3170 3170 3170 3170 3170 3170 3170 3171 3171 3172 3173 3174 3175 3176 3177 3178 3178 3178 3179 3179 3180 3180 3180 3180 3181 3181 3181 3181 3181 3181 3180 3180 3181 3181 3180 3180 3180 3179 3179 3179 3178 3178 3178 3177 3177 3176 3176 3176 3177 3178 3178 3178 3179 3180 3181 3182 3183 3184 3185 3186 3186 3187 3188 3188 3188 3189 3190 3190 3190 3190 3189 3189 3189 3190 3190 3190 3191 3192
3172 3172 3171 3171 3171 3171 3170 3170 3170 3170 3170 3170 3169 3169 3169 3169 3169 3169 3169 3170 3171 3172 3173 3174 3176 3177 3177 3178 3179 3179 3180 3180 3180 3180 3181 3181 3181 3181 3181 3181 3180 3181 3181 3181 3181 3181 3181 3180 3180 3179 3179 3181 3180 3178 3178 3177 3177 3177 3178 3178 3178 3179 3180 3180 3181 3182 3183 3184 3185 3186 3187 3188 3188 3189 3189 3190 3191 3191 3191 3191 3190 3190 3190 3190 3191 3191 3192 3192
3172 3172 3171 3171 3171 3170 3170 3170 3170 3169 3169 3169 3169 3169 3168 3168 3168 3168 3168 3168 3169 3170 3171 3172 3174 3176 3177 3178 3178 3179 3180 3181 3180 3180 3181 3181 3181 3181 3181 3180 3180 3181 3181 3182 3182 3182 3182 3181 3181 3180 3181 3182 3182 3180 3179 3178 3177 3177 3177 3177 3177 3179 3180 3181 3181 3182 3183 3184 3185 3186 3187 3188 3188 3189 3189 3190 3191 3191 3191 3191 3191 3190 3190 3190 3191 3191 3192 3193
3172 3172 3171 3171 3171 3170 3170 3170 3169 3169 3169 3168 3168 3168 3168 3168 3167 3167 3167 3167 3167 3168 3169 3170 3172 3174 3175 3177 3178 3179 3179 3180 3179 3180 3180 3181 3181 3181 3181 3181 3181 3181 3182 3182 3182 3182 3182 3182 3182 3182 3182 3183 3183 3182 3180 3178 3178 3177 3178 3178 3178 3180 3180 3181 3181 3182 3183 3184 3184 3185 3187 3188 3188 3189 3189 3190 3191 3190 3191 3191 3191 3191 3191 3190 3191 3192 3192 3193
3172 3172 3171 3171 3171 3170 3170 3170 3169 3169 3168 3168 3168 3167 3167 3167 3167 3167 3166 3166 3166 3166 3167 3168 3170 3172 3174 3175 3177 3178 3178 3178 3179 3179 3180 3180 3181 3181 3181 3181 3181 3182 3182 3182 3183 3183 3183 3182 3183 3183 3184 3184 3183 3182 3181 3179 3179 3178 3179 3179 3180 3180 3181 3181 3182 3182 3183 3184 3184 3185 3186 3187 3188 3189 3189 3189 3189 3189 3190 3191 3191 3191 3191 3191 3191 3192 3192 3193
3172 3172 3171 3171 3170 3170 3170 3169 3169 3168 3168 3167 3167 3167 3167 3167 3166 3166 3166 3166 3165 3165 3166 3166 3168 3170 3172 3174 3176 3177 3178 3178 3178 3179 3180 3180 3181 3181 3181 3181 3182 3182 3182 3183 3183 3183 3183 3183 3183 3183 3184 3185 3183 3183 3182 3181 3180 3180 3180 3180 3180 3181 3181 3182 3182 3183 3183 3184 3184 3185 3186 3187 3188 3189 3189 3189 3188 3189 3190 3190 3191 3191 3191 3191 3191 3192 3193 3193
3172 3171 3171 3171 3170 3170 3169 3169 3169 3168 3168 3167 3167 3166 3166 3166 3166 3166 3165 3165 3165 3165 3164 3165 3166 3168 3170 3172 3174 3176 3177 3177 3178 3178 3179 3180 3181 3181 3181 3182 3182 3182 3183 3183 3183 3183 3184 3184 3184 3184 3184 3184 3184 3184 3183 3182 3183 3182 3181 3181 3181 3181 3182 3182 3182 3183 3183 3184 3184 3185 3186 3186 3187 3188 3189 3189 3189 3190 3190 3190 3191 3191 3191 3191 3191 3192 3193 3193
3171 3171 3170 3170 3170 3169 3169 3169 3168 3168 3167 3167 3166 3166 3166 3166 3166 3165 3165 3165 3164 3164 3164 3164 3165 3166 3169 3170 3173 3176 3176 3176 3177 3178 3178 3179 3180 3181 3181 3182 3182 3182 3183 3183 3183 3183 3184 3184 3184 3184 3184 3184 3184 3184 3183 3183 3183 3182 3182 3182 3182 3182 3182 3182 3183 3183 3184 3184 3184 3185 3185 3186 3187 3188 3189 3189 3190 3190 3190 3190 3191 3191 3191 3191 3191 3192 3193 3193
3170 3170 3170 3169 3169 3169 3168 3168 3168 3167 3167 3166 3166 3165 3165 3165 3165 3165 3164 3164 3164 3164 3163 3163 3164 3165 3167 3168 3172 3174 3173 3174 3176 3177 3178 3178 3179 3180 3181 3181 3182 3182 3182 3183 3183 3183 3183 3184 3184 3184 3185 3185 3185 3185 3184 3184 3183 3182 3182 3182 3182 3182 3182 3183 3183 3183 3184 3184 3185 3185 3185 3185 3186 3187 3188 3189 3189 3190 3190 3190 3190 3191 3191 3191 3191 3192 3193 3193
3169 3169 3169 3168 3168 3168 3168 3167 3167 3167 3166 3166 3165 3165 3165 3164 3164 3164 3164 3164 3163 3163 3163 3163 3163 3164 3165 3167 3170 3171 3171 3172 3174 3176 3177 3178 3178 3179 3180 3180 3181 3181 3182 3182 3182 3182 3183 3183 3184 3184 3185 3185 3185 3185 3184 3184 3183 3183 3182 3182 3183 3182 3183 3183 3183 3183 3184 3184 3184 3185 3185 3185 3185 3186 3187 3188 3188 3189 3190 3190 3190 3190 3190 3191 3191 3192 3192 3193
3168 3168 3168 3167 3167 3167 3166 3166 3166 3166 3165 3165 3165 3164 3164 3164 3164 3163 3163 3163 3163 3163 3162 3162 3162 3163 3164 3166 3167 3168 3169 3171 3173 3174 3176 3177 3178 3179 3179 3180 3180 3180 3181 3182 3181 3182 3182 3183 3184 3184 3184 3185 3185 3185 3184 3184 3183 3183 3183 3183 3183 3183 3183 3184 3183 3183 3183 3183 3184 3184 3185 3185 3185 3185 3186 3187 3188 3189 3189 3190 3190 3190 3190 3191 3191 3192 3192 3193
3167 3167 3167 3166 3166 3165 3165 3165 3165 3165 3164 3164 3164 3164 3164 3163 3163 3163 3163 3162 3162 3162 3162 3162 3162 3162 3163 3164 3165 3166 3168 3170 3172 3173 3175 3176 3177 3178 3178 3179 3179 3180 3180 3181 3181 3181 3182 3183 3183 3184 3184 3184 3185 3184 3184 3184 3184 3184 3184 3183 3184 3183 3184 3184 3183 3183 3183 3183 3183 3184 3185 3185 3184 3184 3185 3186 3187 3188 3189 3190 3190 3191 3190 3191 3191 3192 3192 3193
3166 3166 3165 3165 3165 3164 3164 3164 3164 3164 3163 3163 3163 3163 3163 3163 3162 3162 3162 3162 3162 3161 3161 3161 3162 3162 3162 3163 3163 3165 3166 3168 3170 3172 3174 3175 3176 3177 3178 3178 3179 3179 3180 3180 3181 3181 3182 3183 3183 3184 3184 3184 3184 3185 3185 3186 3185 3184 3184 3184 3184 3184 3184 3184 3183 3183 3183 3183 3183 3184 3185 3185 3184 3183 3184 3185 3186 3187 3189 3190 3190 3191 3191 3191 3191 3191 3192 3193
3164 3164 3164 3164 3164 3163 3163 3162 3162 3162 3162 3162 3162 3162 3161 3161 3161 3161 3161 3161 3161 3161 3161 3161 3161 3161 3162 3162 3162 3163 3164 3166 3168 3170 3172 3173 3175 3175 3176 3177 3178 3179 3179 3180 3181 3181 3182 3183 3183 3183 3184 3184 3185 3186 3186 3186 3186 3185 3184 3184 3185 3184 3184 3183 3183 3183 3183 3182 3183 3183 3184 3185 3183 3182 3183 3184 3185 3186 3188 3189 3190 3191 3191 3191 3191 3192 3192 3193
3163 3163 3162 3162 3162 3162 3161 3161 3161 3160 3160 3160 3160 3160 3160 3160 3160 3160 3160 3160 3160 3160 3160 3160 3160 3160 3161 3160 3161 3162 3163 3164 3166 3168 3170 3172 3173 3174 3175 3176 3177 3178 3179 3180 3180 3181 3182 3182 3183 3183 3184 3184 3185 3186 3186 3186 3186 3186 3185 3185 3184 3185 3184 3184 3183 3182 3182 3182 3182 3182 3183 3184 3183 3182 3182 3183 3184 3185 3186 3189 3190 3190 3190 3191 3191 3192 3192 3192
3161 3161 3161 3161 3160 3160 3160 3159 3159 3159 3158 3159 3159 3159 3158 3158 3159 3159 3159 3158 3158 3158 3159 3159 3159 3160 3160 3160 3160 3161 3162 3163 3165 3167 3169 3170 3172 3173 3174 3175 3176 3178 3179 3180 3180 3180 3181 3182 3182 3184 3184 3184 3185 3185 3185 3185 3186 3185 3185 3185 3184 3184 3184 3184 3184 3182 3181 3181 3181 3182 3182 3183 3182 3181 3182 3182 3183 3184 3185 3187 3189 3189 3189 3190 3190 3191 3192 3192
3160 3159 3159 3159 3159 3159 3158 3158 3157 3157 3157 3157 3157 3157 3157 3157 3157 3157 3157 3157 3157 3157 3158 3157 3158 3159 3159 3158 3159 3159 3160 3161 3163 3165 3167 3169 3170 3171 3173 3174 3175 3177 3179 3180 3180 3180 3181 3182 3182 3183 3183 3183 3184 3185 3185 3185 3185 3185 3185 3185 3184 3184 3184 3184 3183 3182 3181 3181 3181 3181 3182 3183 3182 3181 3181 3181 3182 3183 3183 3185 3186 3187 3188 3189 3189 3191 3192 3192
3158 3157 3156 3156 3156 3157 3156 3156 3156 3156 3155 3155 3155 3155 3155 3155 3155 3155 3155 3155 3155 3155 3155 3155 3156 3157 3157 3157 3157 3158 3159 3160 3162 3163 3165 3167 3169 3170 3172 3173 3174 3176 3177 3179 3180 3179 3180 3181 3181 3181 3182 3182 3183 3184 3184 3184 3184 3184 3184 3184 3184 3184 3184 3183 3182 3181 3181 3181 3181 3181 3181 3182 3182 3182 3180 3180 3181 3182 3183 3183 3184 3186 3187 3187 3188 3190 3191 3192
3156 3155 3154 3154 3154 3154 3154 3154 3154 3154 3154 3153 3153 3153 3153 3153 3154 3153 3153 3153 3153 3153 3153 3153 3154 3155 3155 3155 3155 3157 3158 3159 3160 3162 3163 3166 3167 3169 3170 3171 3173 3175 3176 3179 3179 3178 3179 3179 3179 3180 3181 3181 3182 3182 3183 3183 3183 3183 3183 3183 3183 3183 3183 3182 3181 3181 3181 3181 3181 3180 3180 3181 3181 3181 3180 3180 3180 3181 3182 3182 3183 3185 3186 3187 3188 3189 3190 3191
3154 3153 3153 3152 3151 3152 3152 3151 3151 3152 3152 3152 3151 3151 3151 3151 3151 3151 3151 3151 3151 3151 3151 3151 3152 3152 3153 3153 3154 3155 3157 3158 3159 3160 3162 3164 3165 3168 3169 3169 3172 3174 3175 3177 3177 3178 3178 3178 3178 3179 3179 3179 3180 3181 3182 3182 3182 3183 3183 3183 3182 3182 3182 3181 3181 3181 3180 3180 3181 3180 3180 3180 3180 3180 3179 3179 3180 3180 3181 3181 3182 3183 3184 3186 3186 3187 3189 3190
3153 3152 3151 3150 3149 3149 3149 3149 3149 3149 3149 3149 3149 3149 3149 3149 3149 3149 3149 3149 3149 3149 3149 3149 3150 3151 3152 3152 3152 3153 3155 3156 3158 3158 3160 3162 3163 3166 3167 3168 3171 3173 3174 3174 3175 3177 3177 3176 3177 3178 3178 3179 3180 3180 3180 3181 3182 3182 3182 3182 3181 3181 3181 3181 3180 3180 3180 3180 3180 3179 3179 3180 3179 3179 3178 3178 3178 3179 3180 3180 3181 3182 3183 3184 3185 3186 3187 3188
3151 3150 3149 3149 3148 3147 3147 3147 3147 3147 3147 3147 3147 3147 3147 3147 3147 3147 3147 3146 3146 3146 3146 3147 3148 3148 3149 3150 3150 3152 3154 3155 3157 3157 3158 3160 3162 3164 3166 3167 3170 3171 3171 3172 3174 3175 3175 3174 3175 3176 3177 3178 3180 3179 3180 3181 3181 3180 3181 3181 3180 3181 3181 3180 3180 3179 3179 3179 3179 3179 3179 3178 3179 3178 3178 3178 3177 3178 3178 3179 3180 3180 3181 3182 3184 3185 3186 3187
3148 3148 3148 3147 3146 3145 3145 3145 3145 3145 3145 3145 3145 3145 3145 3145 3145 3145 3145 3144 3144 3143 3143 3144 3145 3146 3147 3147 3149 3151 3152 3154 3156 3156 3157 3159 3161 3163 3164 3166 3167 3169 3170 3171 3172 3173 3174 3173 3173 3176 3176 3177 3179 3179 3180 3180 3180 3179 3179 3179 3180 3180 3180 3180 3179 3179 3179 3179 3179 3179 3178 3177 3177 3178 3178 3177 3176 3177 3177 3178 3178 3179 3180 3180 3181 3183 3184 3185
3145 3146 3146 3145 3144 3143 3142 3143 3143 3143 3143 3143 3143 3143 3144 3144 3144 3144 3144 3144 3142 3141 3140 3141 3143 3143 3144 3145 3147 3149 3152 3152 3154 3155 3156 3158 3160 3161 3164 3164 3164 3167 3168 3170 3171 3171 3172 3171 3171 3175 3176 3176 3178 3178 3179 3179 3179 3178 3177 3178 3179 3179 3180 3179 3178 3179 3179 3179 3179 3179 3178 3176 3176 3177 3176 3176 3175 3175 3176 3176 3176 3177 3178 3178 3179 3181 3182 3183
3142 3143 3143 3143 3143 3142 3141 3140 3141 3141 3141 3141 3141 3142 3142 3142 3143 3143 3144 3143 3139 3138 3138 3138 3139 3140 3141 3143 3144 3148 3150 3150 3151 3153 3154 3157 3158 3160 3162 3163 3162 3164 3166 3168 3168 3168 3169 3169 3170 3173 3175 3176 3176 3177 3177 3178 3178 3176 3175 3177 3178 3179 3179 3178 3178 3179 3179 3179 3177 3177 3178 3177 3176 3176 3175 3175 3175 3175 3174 3174 3175 3175 3176 3177 3178 3179 3180 3181
3139 3140 3141 3141 3140 3140 3139 3139 3139 3139 3139 3139 3139 3140 3140 3141 3142 3142 3144 3141 3135 3135 3136 3136 3137 3138 3139 3141 3142 3146 3148 3148 3150 3151 3152 3155 3157 3158 3160 3162 3162 3163 3163 3165 3166 3165 3166 3168 3169 3171 3173 3174 3175 3175 3176 3177 3177 3175 3175 3176 3177 3178 3178 3178 3178 3178 3178 3178 3174 3174 3177 3175 3173 3174 3174 3173 3173 3174 3173 3173 3173 3173 3174 3175 3176 3177 3178 3179
3136 3137 3138 3139 3138 3138 3137 3137 3137 3137 3137 3137 3138 3138 3139 3140 3141 3142 3144 3140 3134 3134 3135 3135 3136 3136 3137 3139 3141 3144 3145 3147 3149 3149 3151 3153 3154 3156 3159 3160 3162 3163 3163 3163 3164 3165 3165 3166 3168 3169 3171 3172 3173 3174 3175 3175 3176 3175 3175 3176 3176 3177 3177 3177 3178 3177 3178 3176 3171 3172 3176 3173 3170 3170 3172 3172 3172 3173 3173 3173 3173 3173 3173 3173 3174 3175 3176 3177
3132 3134 3136 3136 3136 3135 3135 3135 3135 3135 3135 3136 3136 3137 3138 3139 3140 3142 3142 3137 3133 3134 3134 3133 3134 3134 3135 3137 3139 3141 3144 3146 3147 3147 3150 3152 3153 3155 3157 3158 3160 3161 3162 3161 3162 3163 3162 3163 3165 3166 3168 3171 3172 3172 3173 3174 3174 3174 3175 3176 3177 3177 3177 3177 3176 3176 3176 3172 3170 3172 3175 3174 3170 3168 3170 3171 3171 3172 3172 3173 3173 3172 3172 3172 3172 3173 3174 3175
3129 3131 3133 3134 3134 3133 3133 3133 3133 3133 3134 3134 3134 3135 3137 3138 3140 3140 3137 3133 3133 3133 3133 3133 3133 3133 3134 3136 3138 3140 3143 3145 3145 3146 3148 3150 3152 3154 3155 3157 3158 3159 3161 3160 3160 3161 3161 3162 3163 3164 3166 3168 3170 3170 3171 3172 3173 3174 3175 3176 3176 3176 3177 3176 3175 3177 3173 3168 3170 3172 3173 3173 3171 3168 3169 3170 3170 3170 3171 3171 3172 3171 3171 3170 3171 3172 3173 3173
3126 3128 3130 3131 3131 3131 3131 3131 3131 3131 3132 3132 3133 3134 3136 3138 3138 3136 3133 3132 3133 3132 3132 3132 3132 3133 3134 3136 3138 3139 3141 3143 3143 3145 3146 3148 3150 3151 3152 3154 3155 3156 3157 3157 3158 3159 3160 3160 3162 3163 3164 3165 3168 3169 3170 3171 3172 3173 3174 3175 3173 3172 3174 3174 3172 3173 3171 3167 3171 3172 3171 3172 3170 3169 3170 3169 3169 3169 3169 3169 3169 3170 3169 3169 3169 3170 3171 3171
3124 3126 3127 3128 3129 3129 3129 3129 3129 3130 3130 3131 3132 3133 3136 3137 3134 3132 3132 3133 3132 3131 3131 3132 3132 3133 3133 3135 3137 3138 3140 3142 3142 3144 3146 3147 3149 3150 3151 3153 3153 3154 3154 3154 3156 3156 3157 3159 3160 3162 3162 3163 3165 3167 3168 3169 3171 3172 3172 3173 3170 3167 3170 3170 3167 3168 3168 3167 3170 3171 3170 3170 3168 3168 3168 3168 3168 3168 3167 3167 3167 3168 3168 3167 3168 3168 3168 3169
3121 3123 3125 3126 3127 3127 3127 3127 3128 3128 3128 3129 3130 3132 3134 3133 3130 3129 3131 3132 3131 3130 3131 3131 3131 3132 3133 3134 3136 3136 3139 3141 3141 3143 3145 3146 3147 3148 3149 3150 3151 3153 3153 3153 3153 3153 3153 3154 3155 3158 3160 3161 3162 3164 3166 3167 3169 3170 3170 3170 3169 3166 3167 3165 3162 3163 3164 3166 3169 3170 3169 3168 3166 3167 3166 3166 3167 3166 3166 3166 3166 3166 3166 3166 3166 3166 3166 3166
3120 3121 3122 3123 3124 3125 3125 3126 3126 3126 3127 3127 3129 3131 3131 3129 3128 3129 3129 3129 3129 3130 3130 3130 3131 3132 3132 3133 3135 3135 3137 3139 3140 3142 3143 3144 3145 3145 3146 3148 3148 3150 3152 3152 3151 3152 3152 3151 3151 3154 3157 3159 3161 3162 3165 3166 3167 3167 3169 3169 3168 3167 3166 3165 3163 3164 3164 3165 3166 3166 3167 3166 3165 3165 3165 3165 3165 3165 3165 3165 3165 3165 3165 3164 3164 3164 3163 3163
3118 3119 3120 3121 3122 3123 3124 3124 3124 3124 3125 3126 3128 3129 3127 3127 3128 3127 3127 3127 3127 3128 3130 3130 3130 3131 3132 3132 3133 3133 3135 3137 3138 3140 3141 3142 3143 3143 3144 3146 3146 3148 3150 3150 3150 3151 3151 3151 3151 3153 3155 3157 3160 3162 3164 3165 3164 3165 3167 3167 3166 3167 3167 3165 3164 3166 3167 3164 3162 3163 3164 3163 3164 3164 3164 3163 3163 3164 3164 3164 3165 3164 3164 3163 3163 3162 3162 3161
3116 3117 3118 3119 3120 3121 3122 3122 3123 3123 3124 3125 3126 3126 3125 3126 3125 3124 3124 3125 3126 3127 3129 3129 3129 3129 3130 3130 3131 3132 3134 3135 3136 3137 3139 3140 3140 3140 3142 3144 3144 3145 3147 3149 3149 3149 3149 3149 3150 3152 3154 3156 3158 3160 3162 3163 3163 3164 3165 3164 3165 3167 3167 3165 3164 3164 3164 3162 3159 3161 3161 3161 3162 3163 3163 3163 3163 3164 3164 3164 3164 3164 3163 3163 3162 3161 3160 3159
3115 3116 3116 3117 3118 3119 3120 3120 3121 3121 3122 3123 3124 3123 3123 3124 3123 3122 3123 3124 3124 3126 3127 3128 3128 3128 3128 3129 3129 3130 3132 3133 3134 3135 3136 3137 3137 3137 3139 3141 3142 3143 3145 3148 3149 3149 3149 3148 3148 3151 3153 3154 3156 3158 3159 3160 3162 3163 3162 3162 3163 3164 3163 3164 3164 3161 3161 3160 3158 3159 3160 3161 3162 3162 3163 3164 3164 3164 3164 3163 3163 3163 3163 3162 3161 3160 3159 3158
3114 3114 3115 3115 3116 3117 3118 3119 3119 3120 3121 3121 3122 3122 3121 3121 3121 3120 3121 3122 3123 3124 3126 3127 3126 3126 3128 3128 3128 3129 3130 3131 3132 3134 3134 3134 3135 3135 3137 3139 3140 3141 3144 3146 3147 3148 3149 3148 3146 3148 3151 3152 3154 3156 3156 3157 3159 3161 3162 3162 3163 3162 3159 3161 3162 3159 3158 3159 3159 3160 3160 3161 3161 3161 3162 3163 3163 3164 3163 3162 3163 3163 3162 3162 3161 3160 3159 3158
3113 3114 3113 3114 3115 3116 3116 3117 3118 3118 3119 3119 3121 3120 3119 3119 3119 3118 3119 3121 3122 3123 3124 3125 3125 3126 3127 3127 3127 3128 3129 3129 3131 3132 3132 3132 3133 3134 3135 3137 3139 3140 3141 3144 3146 3147 3148 3148 3146 3146 3149 3150 3151 3151 3152 3154 3156 3158 3160 3160 3160 3160 3160 3160 3160 3159 3158 3158 3159 3160 3160 3160 3161 3161 3162 3162 3163 3162 3162 3162 3162 3162 3162 3161 3161 3160 3159 3158
3113 3113 3112 3112 3113 3114 3115 3116 3116 3117 3117 3118 3118 3117 3116 3116 3117 3117 3118 3118 3119 3121 3121 3122 3123 3124 3125 3126 3126 3127 3127 3128 3129 3129 3130 3130 3131 3132 3133 3135 3137 3138 3139 3141 3144 3145 3146 3147 3146 3146 3147 3148 3147 3148 3151 3152 3153 3155 3156 3157 3157 3157 3158 3158 3156 3158 3159 3158 3157 3158 3158 3158 3160 3161 3161 3161 3161 3161 3161 3162 3162 3162 3162 3161 3160 3160 3159 3159
3112 3112 3111 3111 3112 3112 3113 3115 3115 3115 3116 3116 3115 3114 3114 3114 3115 3116 3116 3116 3118 3119 3119 3119 3121 3122 3123 3124 3125 3125 3126 3127 3127 3127 3128 3128 3129 3131 3132 3133 3135 3136 3137 3139 3141 3142 3144 3146 3146 3145 3145 3145 3145 3147 3149 3150 3151 3153 3153 3153 3153 3154 3155 3155 3153 3155 3158 3158 3158 3157 3156 3157 3159 3160 3160 3160 3160 3161 3161 3161 3161 3161 3161 3161 3160 3160 3160 3160
3111 3110 3110 3110 3110 3111 3112 3114 3113 3113 3114 3113 3112 3112 3112 3113 3114 3114 3115 3116 3116 3117 3117 3117 3118 3120 3121 3122 3123 3124 3124 3124 3125 3125 3126 3127 3128 3130 3131 3131 3133 3135 3136 3138 3139 3140 3142 3143 3144 3144 3144 3144 3145 3146 3148 3148 3149 3151 3151 3151 3151 3151 3152 3153 3153 3154 3156 3156 3158 3158 3157 3158 3159 3159 3159 3159 3160 3160 3161 3161 3161 3161 3161 3160 3160 3160 3160 3160
3109 3109 3108 3108 3109 3109 3111 3112 3112 3112 3112 3111 3110 3111 3111 3111 3112 3113 3114 3114 3114 3115 3115 3116 3117 3118 3119 3120 3120 3121 3123 3123 3123 3123 3124 3125 3126 3127 3128 3130 3131 3133 3135 3136 3137 3138 3139 3140 3141 3141 3142 3143 3144 3145 3145 3146 3147 3148 3148 3150 3150 3150 3151 3153 3154 3155 3156 3155 3157 3157 3157 3158 3158 3158 3158 3159 3159 3159 3160 3160 3160 3160 3160 3160 3160 3160 3160 3160
3108 3108 3107 3107 3107 3108 3108 3109 3109 3110 3110 3108 3109 3110 3110 3110 3111 3111 3111 3112 3112 3113 3113 3114 3115 3115 3116 3117 3117 3119 3120 3121 3121 3122 3122 3123 3124 3124 3125 3127 3129 3131 3133 3134 3135 3135 3136 3138 3138 3138 3137 3137 3138 3139 3140 3142 3144 3145 3146 3147 3149 3150 3151 3152 3153 3155 3155 3155 3157 3157 3156 3157 3158 3158 3157 3158 3158 3159 3159 3159 3160 3160 3160 3160 3159 3160 3160 3160
3107 3107 3107 3106 3106 3106 3106 3106 3106 3108 3107 3107 3108 3109 3109 3110 3110 3109 3109 3110 3110 3110 3111 3112 3112 3113 3114 3115 3115 3117 3118 3119 3119 3120 3120 3122 3123 3123 3123 3125 3127 3129 3130 3131 3132 3134 3135 3136 3136 3136 3135 3134 3134 3136 3137 3140 3142 3142 3144 3146 3147 3149 3150 3151 3152 3153 3154 3155 3156 3156 3156 3156 3157 3157 3157 3157 3157 3158 3158 3159 3159 3159 3159 3159 3159 3159 3159 3160
3106 3106 3106 3105 3105 3105 3104 3104 3104 3105 3105 3105 3106 3107 3107 3109 3109 3108 3108 3109 3109 3109 3110 3110 3111 3111 3112 3112 3114 3115 3116 3117 3118 3118 3118 3120 3121 3122 3122 3123 3124 3125 3127 3128 3130 3132 3133 3134 3134 3134 3134 3134 3134 3136 3138 3139 3140 3140 3142 3144 3145 3147 3148 3149 3150 3152 3153 3153 3153 3155 3156 3156 3156 3156 3157 3157 3157 3157 3158 3158 3158 3159 3159 3159 3159 3159 3159 3159
3105 3104 3104 3104 3104 3103 3103 3103 3102 3102 3103 3103 3104 3104 3105 3107 3108 3107 3107 3107 3107 3108 3109 3110 3109 3109 3109 3110 3111 3113 3114 3115 3116 3116 3117 3118 3119 3120 3121 3121 3122 3122 3124 3127 3128 3130 3131 3131 3132 3133 3133 3133 3135 3136 3137 3138 3139 3139 3140 3142 3143 3145 3146 3147 3148 3150 3152 3152 3152 3153 3155 3155 3155 3155 3156 3156 3157 3157 3157 3157 3158 3158 3158 3158 3158 3158 3159 3159
3104 3103 3102 3102 3102 3101 3101 3101 3100 3101 3101 3101 3102 3102 3103 3105 3105 3105 3105 3106 3107 3107 3107 3108 3108 3107 3107 3108 3109 3111 3112 3112 3113 3114 3116 3116 3117 3118 3120 3120 3121 3121 3123 3125 3126 3128 3129 3129 3130 3131 3131 3132 3134 3135 3136 3137 3138 3139 3139 3140 3142 3143 3144 3145 3146 3148 3150 3151 3151 3153 3154 3154 3155 3155 3155 3155 3156 3156 3156 3156 3157 3157 3158 3158 3158 3158 3158 3158
3102 3101 3100 3100 3100 3099 3099 3099 3099 3100 3100 3100 3101 3101 3101 3102 3102 3102 3103 3104 3106 3105 3105 3106 3105 3105 3105 3106 3107 3108 3108 3108 3110 3112 3112 3114 3115 3116 3118 3119 3119 3120 3122 3124 3125 3126 3127 3127 3128 3129 3130 3130 3131 3132 3133 3135 3137 3138 3138 3139 3140 3142 3143 3144 3145 3146 3148 3149 3150 3151 3152 3153 3153 3153 3153 3153 3154 3155 3155 3155 3156 3157 3157 3157 3158 3158 3158 3158
3101 3100 3099 3098 3098 3097 3097 3098 3097 3099 3100 3099 3099 3099 3098 3099 3099 3100 3101 3102 3103 3103 3103 3103 3104 3103 3104 3105 3105 3104 3104 3105 3107 3109 3110 3111 3112 3114 3115 3116 3117 3119 3120 3122 3123 3123 3125 3125 3126 3127 3128 3127 3128 3130 3131 3133 3135 3136 3136 3137 3138 3140 3141 3142 3143 3144 3146 3147 3148 3149 3151 3152 3152 3151 3152 3152 3153 3154 3154 3155 3155 3156 3156 3157 3157 3157 3157 3157
3100 3099 3098 3097 3097 3096 3096 3096 3096 3098 3098 3097 3096 3096 3096 3097 3097 3098 3099 3100 3100 3101 3101 3101 3102 3102 3103 3103 3102 3101 3102 3103 3105 3106 3108 3109 3110 3112 3113 3114 3115 3117 3118 3120 3121 3121 3123 3123 3124 3125 3125 3124 3126 3128 3129 3132 3133 3132 3132 3134 3136 3137 3139 3140 3141 3142 3144 3145 3147 3148 3149 3150 3150 3150 3151 3151 3152 3153 3153 3153 3154 3155 3155 3156 3156 3157 3157 3156